User: anonymous   Login
Location: Pine Mountain Observatory
(43.7910°N, 120.9377°W)
Time: 00:37:45
(UTC-07:00)
Language:

Cosmos 1076 Rocket - Orbit

View from above orbital plane
View from above orbital plane
View from above satellite
View from above satellite

Ground track
Ground track

The orbit data is extracted from the following two-line orbital elements,

1 11267U 79011B   15126.82410216  .00000513  00000-0  52467-4 0  9991
2 11267 082.5266 238.5132 0015471 278.4106 081.5358 14.88544109960557
Epoch (UTC): 06 May 2015 19:46:42
Eccentricity: 0.0015471
inclination: 82.5266°
perigee height: 591 km
apogee height: 613 km
right ascension of ascending node: 238.5132°
argument of perigee: 278.4106°
revolutions per day: 14.88544109
mean anomaly at epoch: 81.5358°
orbit number at epoch: 96055

The dashed part of the orbit path shows where the satellite is in the earth's shadow,  

DLR